Main page
METAR-TAF:

METAR-TAF

Airports :

Kerrville Municipal Airport

Kerrville, Texas, United States

latitude: 29-58N, longitude: 099-05W, elevation: 1617 ft

Current weather observation

The report was made 26 minutes ago, at 17:35 UTC
Wind 6 mph from the South/Southeast
Temperature 88°F
Humidity 49%
Pressure 30.02 in. Hg
Visibility: 10 miles
Scattered clouds at a height of 3800 ft
Scattered clouds at a height of 4700 ft
Broken clouds at a height of 5500 ft

METAR: KERV 141735Z AUTO 16005KT 10SM SCT038 SCT047 BKN055 31/19 A3002 RMK AO2 T03120193

Time: 13:01 (18:01 UTC)


TAF: missing

Weather observations and forecasts of more than 4000 airports (METAR and TAF reports).

The available stations are represented by yellow and red dots on the map.

Hover mouse over dot to see the name of the station.

Then click to see weather observations and forecasts.

To change the map : click on the green buttons with a black cross to zoom in, on the green button with a dash to zoom out, or on the green arrows for adjacent maps.


METAR-TAF: